Torna al catalogo

FENGYUN 1C DEB *

AttivoPO
NORAD 47001·DEBRIS·🇨🇳 China

Lanciato May 10, 1999 da Taiyuan Satellite Launch Center

Loading…

Prossimi Passaggi (prossime 24 ore)

TLE

In scadenzaSource: Space-Track

Epoca: Sep 10, 2026, 00:46 UTC

1 47001U 99025FAB 26253.03212943  .00002517  00000-0  79213-3 0  9999
2 47001  99.2891 338.8865 0049033 336.2249  23.6672 14.40727854778180

Traccia FENGYUN 1C DEB * in tempo reale con AllMySat

Download on the App Store